Location: Hylvaty SDH
(49.9612°N, 16.4057°E)
Time: 04:14:24
(UTC+01:00)

Tiros 1 despin weight - Pass Details

Date: 25 January 2021
Orbit: 593 x 642 km, 48.2° (Epoch: 24 February)

Event Time Altitude Azimuth Distance (km) Brightness Sun altitude
Rises 18:13:00 0° 279° (W) 2,863 ? -15.2°
Reaches altitude 10° 18:15:22 10° 273° (W) 1,950 ? -15.6°
Maximum altitude 18:19:39 47° 200° (SSW) 796 ? -16.3°
Enters shadow 18:22:43 18° 133° (SE) 1,497 ? -16.8°
